[[{"header":{"parameterUnit":"m.s-1","parameterCategory":1,"la1":30.2991,"la2":30.254,"lo1":-89.0895,"lo2":-89.0444,"dy":0.0017,"dx":0.0017,"nx":28,"ny":28,"refTime":"2023-07-26T21:00:00:Z","depth":0,"parameterNumber":2,"parameterNumberName":"U-component_of_WINDS"},"data":[0,0,0,0,0,0,0,0,0,0,0,0,0,0,0,0,0,0,0,0,0,0,0,0,0,0,0,0,0,0,0,0,0,0,0,0,0,0,0,0,0,0,0,0,0,0,0,0,0,0,0,0,0,0,0,0,0,0,-0.8754,-0.8753,0,-0.8726,-0.8725,-0.8725,-0.8726,-0.8726,-0.8727,-0.8727,-0.8696,-0.8695,-0.8694,0,0,0,0,0,0,0,0,0,0,0,0,0,-0.8807,-0.8806,-0.8754,-0.8753,-0.8753,-0.8726,-0.8725,-0.8725,-0.8726,-0.8726,-0.8727,-0.8727,-0.8696,-0.8695,-0.8694,0,0,0,0,0,0,0,0,0,0,0,0,0,-0.8782,-0.8805,-0.8754,-0.875,-0.875,-0.8726,-0.8725,-0.8725,-0.8726,-0.8726,-0.8727,-0.8728,-0.8697,-0.8695,-0.8693,-0.867,0,0,-0.8688,-0.8687,0,0,0,0,0,0,0,0,-0.8783,-0.878,-0.8751,-0.8751,-0.875,-0.873,-0.8733,-0.8707,-0.8726,-0.8735,-0.8727,-0.8728,-0.8707,-0.8704,-0.8698,-0.8669,-0.8668,-0.8688,-0.8687,-0.8686,-0.8685,0,0,0,0,0,0,0,-0.8785,-0.8781,-0.8743,-0.8751,-0.875,-0.875,-0.8747,-0.8728,-0.8718,-0.8734,-0.8734,-0.8731,-0.8706,-0.8699,-0.8697,-0.8667,-0.8688,-0.8686,-0.8685,-0.8684,-0.8619,-0.8618,0,0,0,0,0,0,-0.8787,-0.8782,-0.8744,-0.8742,-0.8768,-0.8748,-0.8745,-0.8736,-0.8718,-0.8716,-0.873,-0.8731,-0.8702,-0.8699,-0.8696,-0.8667,-0.8686,-0.8684,-0.8683,-0.862,-0.8619,-0.8618,0,0,0,0,0,0,-0.8789,-0.8784,-0.8745,-0.8762,-0.8757,-0.8747,-0.8736,-0.8735,-0.8728,-0.8715,-0.8713,-0.8725,-0.8702,-0.8698,-0.8677,-0.8666,-0.8683,-0.8682,-0.862,-0.8619,-0.8618,-0.8611,0,0,0,0,0,0,-0.879,-0.8784,-0.8776,-0.8762,-0.8756,-0.8727,-0.8736,-0.8734,-0.8725,-0.8725,-0.871,-0.8707,-0.8703,-0.868,-0.8675,-0.8664,-0.868,-0.8621,-0.862,-0.8619,-0.8612,-0.861,-0.8608,0,0,0,0,0,-0.8792,-0.8774,-0.8775,-0.8771,-0.8745,-0.8726,-0.8723,-0.8718,-0.8724,-0.8715,-0.8707,-0.8708,-0.8669,-0.8677,-0.8672,-0.8661,-0.8622,-0.862,-0.8619,-0.8613,-0.861,-0.8608,0,0,0,0,0,0,-0.8785,-0.8772,-0.8773,-0.875,-0.874,-0.8726,-0.8714,-0.8715,-0.8702,-0.8702,-0.8697,-0.8693,-0.8672,-0.8665,-0.8674,-0.8638,-0.8646,-0.8643,-0.8643,-0.864,-0.8638,-0.864,-0.8679,0,0,0,0,0,-0.8782,-0.8768,-0.8757,-0.8738,-0.8732,-0.8725,-0.8716,-0.8714,-0.8702,-0.8697,-0.8687,-0.8675,-0.866,-0.865,-0.8636,-0.8612,-0.8608,-0.8601,-0.8599,-0.8598,-0.8595,-0.8581,-0.8578,-0.8613,-0.8613,-0.8613,0,0,-0.8773,-0.8764,-0.8755,-0.8736,-0.8727,-0.8713,-0.872,-0.8704,-0.8693,-0.8694,-0.8673,-0.8666,-0.8653,-0.863,-0.8619,-0.8623,-0.8585,-0.8596,-0.8594,-0.8592,-0.858,-0.8576,-0.8573,-0.8612,-0.8612,-0.8613,0,0,-0.8749,-0.8742,-0.8725,-0.8716,-0.8704,-0.8699,-0.8695,-0.8682,-0.8678,-0.8658,-0.8658,-0.8645,-0.8619,-0.8609,-0.8601,-0.8576,-0.8576,-0.8571,-0.856,-0.8547,-0.8544,-0.8541,-0.8532,-0.8528,-0.8569,-0.8569,-0.8569,0,-0.8739,-0.8718,-0.8716,-0.87,-0.8691,-0.8693,-0.8676,-0.8668,-0.8651,-0.8644,-0.8649,-0.8618,-0.8609,-0.8584,-0.8578,-0.8571,-0.8566,-0.8572,-0.8545,-0.8542,-0.854,-0.853,-0.8527,-0.8569,-0.8569,-0.8569,-0.8569,0,-0.8706,-0.8692,-0.868,-0.8664,-0.8655,-0.8638,-0.8633,-0.8624,-0.8623,-0.8618,-0.8597,-0.8587,-0.857,-0.8565,-0.8563,-0.854,-0.8542,-0.8546,-0.8554,-0.8536,-0.8527,-0.8523,-0.8568,-0.8568,-0.8568,-0.8568,0,0,-0.8675,-0.8661,-0.8656,-0.8649,-0.8636,-0.8624,-0.8609,-0.8594,-0.8585,-0.8574,-0.856,-0.8539,-0.8543,-0.8534,-0.8532,-0.8521,-0.8501,-0.8526,-0.8525,-0.852,-0.8474,-0.8469,-0.8465,-0.8502,-0.8501,-0.8501,-0.8474,0,-0.8649,-0.8621,-0.8619,-0.8594,-0.858,-0.8583,-0.8569,-0.8559,-0.8555,-0.8542,-0.8537,-0.8522,-0.8529,-0.8523,-0.8512,-0.8506,-0.8491,-0.8508,-0.8487,-0.8487,-0.8489,-0.8461,-0.8456,-0.8431,-0.8471,-0.847,-0.847,0,-0.8614,-0.8603,-0.8576,-0.8566,-0.856,-0.8548,-0.8534,-0.8523,-0.8512,-0.851,-0.85,-0.85,-0.8484,-0.8494,-0.8471,-0.8482,-0.8474,-0.847,-0.8469,-0.8465,-0.8476,-0.8455,-0.8424,-0.8419,-0.8465,-0.8465,-0.8465,0,-0.8592,-0.8571,-0.8552,-0.8547,-0.8535,-0.8526,-0.8521,-0.8511,-0.8502,-0.8491,-0.8485,-0.8472,-0.8464,-0.8453,-0.845,-0.8458,-0.8426,-0.8436,-0.8423,-0.8423,-0.8414,-0.8414,-0.8379,-0.8412,-0.8412,-0.8412,-0.8412,0,-0.8562,-0.8545,-0.8542,-0.8531,-0.8512,-0.8511,-0.8493,-0.8488,-0.848,-0.8467,-0.8469,-0.8456,-0.8453,-0.844,-0.8438,-0.8418,-0.8415,-0.8412,-0.8411,-0.8411,-0.8411,-0.8404,-0.8404,-0.8411,-0.8411,-0.8411,-0.8412,0,-0.8533,-0.8531,-0.8511,-0.8502,-0.85,-0.8486,-0.8479,-0.8467,-0.8464,-0.8448,-0.8444,-0.8438,-0.8423,-0.842,-0.8401,-0.84,-0.8377,-0.8378,-0.838,-0.8379,-0.8366,-0.8366,-0.8323,-0.8317,-0.8356,-0.8355,-0.8355,0,-0.8513,-0.85,-0.8491,-0.8483,-0.8478,-0.8465,-0.8457,-0.8456,-0.8447,-0.8435,-0.8425,-0.8411,-0.8399,-0.8376,-0.8369,-0.8356,-0.8356,-0.8342,-0.8354,-0.8354,-0.8354,-0.8354,-0.8352,-0.8339,-0.8339,-0.8338,-0.8338,0,-0.8477,-0.8477,-0.8465,-0.8454,-0.8444,-0.8435,-0.8426,-0.8419,-0.8417,-0.8407,-0.8393,-0.8384,-0.8367,-0.8352,-0.8339,-0.8333,-0.8334,-0.8335,-0.8331,-0.8329,-0.833,-0.8328,-0.8372,-0.8335,-0.8335,-0.8336,-0.8336,-0.8336,-0.8451,-0.844,-0.8432,-0.8419,-0.8413,-0.8405,-0.8394,-0.839,-0.8378,-0.8364,-0.8365,-0.8349,-0.834,-0.8323,-0.8316,-0.8303,-0.8307,-0.8302,-0.83,-0.8298,-0.8296,-0.8334,-0.8301,-0.8301,-0.8301,-0.8301,-0.8301,0,-0.8413,-0.8409,-0.8398,-0.8386,-0.8376,-0.8381,-0.8372,-0.8363,-0.8349,-0.8341,-0.833,-0.8314,-0.83,-0.8294,-0.8281,-0.8272,-0.8272,-0.8268,-0.8267,-0.8266,-0.8294,-0.8298,-0.8268,-0.8268,-0.8268,-0.8268,-0.8268,-0.8268,-0.8392,-0.8374,-0.8374,-0.8352,-0.8348,-0.8333,-0.8327,-0.832,-0.8313,-0.8295,-0.8285,-0.8281,-0.8274,-0.8261,-0.8249,-0.8247,-0.8241,-0.8236,-0.8235,-0.8261,-0.8264,-0.8267,-0.8271,-0.8236,-0.8236,-0.8208,-0.8208,-0.8208]},{"header":{"parameterUnit":"m.s-1","parameterCategory":1,"la1":30.2991,"la2":30.254,"lo1":-89.0895,"lo2":-89.0444,"dy":0.0017,"dx":0.0017,"nx":28,"ny":28,"refTime":"2023-07-26T21:00:00:Z","depth":0,"parameterNumber":3,"parameterNumberName":"V-component_of_WINDS"},"data":[0,0,0,0,0,0,0,0,0,0,0,0,0,0,0,0,0,0,0,0,0,0,0,0,0,0,0,0,0,0,0,0,0,0,0,0,0,0,0,0,0,0,0,0,0,0,0,0,0,0,0,0,0,0,0,0,0,0,2.0729,2.073,0,2.0849,2.0851,2.0852,2.0968,2.0969,2.097,2.0972,2.1087,2.1088,2.109,0,0,0,0,0,0,0,0,0,0,0,0,0,2.0589,2.0591,2.0728,2.073,2.0731,2.0849,2.0851,2.0852,2.0967,2.0969,2.0971,2.0973,2.1086,2.1088,2.109,0,0,0,0,0,0,0,0,0,0,0,0,0,2.0673,2.0592,2.0728,2.0803,2.0811,2.0849,2.0851,2.0853,2.0967,2.0969,2.0971,2.0973,2.1086,2.1088,2.1091,2.1061,0,0,2.1098,2.1099,0,0,0,0,0,0,0,0,2.0668,2.0678,2.0791,2.0798,2.0807,2.0896,2.0844,2.0922,2.0966,2.0907,2.0972,2.0975,2.1021,2.1029,2.1046,2.1066,2.1071,2.1098,2.11,2.1101,2.1102,0,0,0,0,0,0,0,2.0663,2.0674,2.0776,2.0792,2.0802,2.0828,2.0843,2.0859,2.095,2.0913,2.0921,2.0935,2.1026,2.1044,2.105,2.1073,2.1098,2.1101,2.1102,2.1103,2.1073,2.1071,0,0,0,0,0,0,2.0646,2.0668,2.0772,2.078,2.0742,2.0829,2.0845,2.0865,2.095,2.0965,2.0933,2.094,2.1038,2.1047,2.1054,2.1024,2.1101,2.1103,2.1105,2.1076,2.1073,2.107,0,0,0,0,0,0,2.0643,2.0655,2.0767,2.0726,2.0743,2.0829,2.085,2.0866,2.0884,2.0965,2.0981,2.0935,2.104,2.1051,2.1059,2.1029,2.1104,2.1107,2.1078,2.1075,2.1072,2.0963,0,0,0,0,0,0,2.0639,2.0653,2.0644,2.0726,2.0745,2.0772,2.0849,2.0867,2.0889,2.0899,2.0971,2.0985,2.1043,2.1054,2.1061,2.1034,2.1109,2.1081,2.1077,2.1073,2.097,2.0956,2.0945,0,0,0,0,0,2.0633,2.0607,2.0643,2.0655,2.0736,2.077,2.0781,2.085,2.0886,2.0877,2.0929,2.0983,2.1032,2.1054,2.1063,2.1036,2.1083,2.1078,2.1073,2.0975,2.0959,2.0945,0,0,0,0,0,0,2.0517,2.0619,2.066,2.0661,2.0706,2.0789,2.078,2.0831,2.0864,2.0872,2.0955,2.097,2.0967,2.1003,2.1026,2.1011,2.1065,2.1061,2.0988,2.0973,2.0961,2.0951,2.1111,0,0,0,0,0,2.0492,2.0514,2.0601,2.0593,2.0614,2.0693,2.071,2.076,2.0809,2.0828,2.088,2.0924,2.0949,2.0964,2.0991,2.0977,2.0992,2.0962,2.095,2.094,2.0934,2.0927,2.0914,2.1053,2.1053,2.1053,0,0,2.044,2.0498,2.0506,2.0571,2.0612,2.0629,2.0708,2.0723,2.0736,2.0829,2.084,2.088,2.0934,2.093,2.0931,2.0959,2.09,2.0933,2.0924,2.0925,2.092,2.0907,2.0895,2.105,2.105,2.1051,0,0,2.0353,2.04,2.0398,2.0438,2.0501,2.0554,2.0553,2.0629,2.066,2.0673,2.0743,2.0758,2.08,2.0835,2.0858,2.0785,2.0835,2.0792,2.0726,2.0718,2.0707,2.0698,2.0669,2.0658,2.0787,2.0787,2.0787,0,2.0278,2.0311,2.039,2.0401,2.0426,2.0515,2.0511,2.0545,2.0612,2.0626,2.0659,2.0713,2.0756,2.076,2.0742,2.0759,2.0758,2.0782,2.0703,2.0694,2.0686,2.066,2.0649,2.0781,2.0782,2.0782,2.0783,0,2.0215,2.0236,2.0226,2.0291,2.0316,2.0319,2.0396,2.0411,2.0459,2.0507,2.0518,2.0573,2.0612,2.0618,2.0663,2.0628,2.0643,2.0688,2.0743,2.0666,2.0642,2.0633,2.0773,2.0775,2.0776,2.0778,0,0,2.0056,2.0166,2.0161,2.0191,2.0266,2.0283,2.0289,2.0331,2.0341,2.0384,2.039,2.0424,2.0466,2.0492,2.0543,2.0536,2.0472,2.0582,2.0584,2.0557,2.0432,2.0396,2.0383,2.0507,2.0505,2.0504,2.0427,0,1.9979,2.0,2.0071,2.0068,2.0087,2.0172,2.0178,2.0223,2.0268,2.0289,2.0339,2.036,2.0416,2.0432,2.0429,2.048,2.0447,2.0487,2.0509,2.0509,2.049,2.0371,2.0333,2.0258,2.0419,2.0417,2.0416,0,1.9892,1.9932,1.9932,2.0006,2.0017,2.0021,2.0064,2.0084,2.0136,2.017,2.02,2.0257,2.0266,2.032,2.0332,2.0357,2.0371,2.0397,2.0396,2.0398,2.0455,2.0367,2.0236,2.0223,2.0403,2.0404,2.0405,0,1.9772,1.9826,1.9833,1.9856,1.9944,1.9945,1.9981,2.0036,2.0056,2.0093,2.0107,2.0143,2.0162,2.0188,2.0253,2.0287,2.0257,2.0316,2.0282,2.028,2.0269,2.0268,2.0135,2.0282,2.0282,2.0283,2.0283,0,1.9677,1.9673,1.978,1.9784,1.9781,1.9862,1.9856,1.99,1.9949,1.996,2.0036,2.0044,2.0131,2.0148,2.0199,2.02,2.0208,2.0233,2.0246,2.0225,2.0221,2.0232,2.0238,2.028,2.028,2.0281,2.0281,0,1.9541,1.9614,1.9626,1.9709,1.973,1.9724,1.9794,1.9799,1.985,1.9863,1.9871,1.995,1.9975,2.0043,2.0085,2.0119,2.0104,2.013,2.0086,2.0094,2.0054,2.0056,1.9921,1.9906,2.0065,2.0064,2.0063,0,1.9474,1.9473,1.9557,1.9572,1.9605,1.9628,1.965,1.973,1.9748,1.9808,1.9805,1.9837,1.9866,1.9901,1.996,1.9992,2.0018,1.9969,2.0023,2.0001,2.0013,2.0011,2.001,1.9955,1.9953,1.9951,1.995,0,1.9347,1.9383,1.9413,1.9455,1.9479,1.9515,1.9556,1.9562,1.9652,1.9669,1.9697,1.9719,1.9763,1.9792,1.9834,1.9868,1.9922,1.9933,1.9926,1.9902,1.9876,1.9887,2.005,1.9935,1.9936,1.9937,1.9938,1.9939,1.9242,1.9244,1.9304,1.9334,1.9373,1.9409,1.9418,1.9471,1.9497,1.954,1.9586,1.9608,1.9659,1.9721,1.9751,1.9768,1.9797,1.9787,1.9784,1.978,1.9769,1.9876,1.9776,1.9776,1.9777,1.9777,1.9778,0,1.9115,1.9158,1.9186,1.9241,1.9264,1.9318,1.9365,1.9379,1.9399,1.9444,1.9472,1.9502,1.9531,1.9593,1.9627,1.9628,1.9654,1.9634,1.9633,1.9639,1.9743,1.9744,1.9613,1.9613,1.9613,1.9613,1.9613,1.9613,1.9052,1.9059,1.9102,1.9128,1.9171,1.9195,1.9217,1.9249,1.9286,1.9317,1.9343,1.9385,1.9436,1.9474,1.9501,1.9519,1.9526,1.9498,1.9522,1.9617,1.9632,1.9647,1.9649,1.9499,1.9499,1.9418,1.9417,1.9416]}]]